Zurück zum Katalog

STARLINK-32242

AktivKommunikationVLEO
NORAD 60429·PAYLOAD·🇺🇸 United States

Gestartet Aug 12, 2024 von Cape Canaveral Space Force Station

Loading…

Nächste Überflüge (nächste 24 Stunden)

TLE

AktuellSource: CelesTrak SupGP

Epoche: Sep 15, 2026, 03:09 UTC

1 60429C 24144E   26258.13173611 -.00016564  00000+0 -48953-3 0  2585
2 60429  53.1588  54.8492 0000811  73.0024  35.1199 15.34390921    17

Verfolge STARLINK-32242 in Echtzeit mit AllMySat

Download on the App Store